This demonstration page uses our WeatherBlox Daily Observations layout. Learn more.

Hourly Observations for July 12, 2019

Temp ( °F °C ) Dew Point ( °F °C ) Humidity (%) Winds ( mph kmh ) Pressure ( in mb ) Visibility ( mi km ) Precip ( " mm )
12:15 am 00:15 Clear 69 20.8 65 18.5 87 87 SSE 6 9 29.94 1014 10 16.09344 0 0
12:35 am 00:35 Clear 69 20.5 65 18.5 88 88 S 6 9 29.94 1014 10 16.09344 0 0
12:55 am 00:55 Clear 69 20.5 65 18.3 87 87 SSE 5 7 29.94 1014 10 16.09344 0 0
1:15 am 01:15 Clear 68 20 65 18.4 91 91 Calm 29.94 1014 10 16.09344 0 0
1:35 am 01:35 Clear 67 19.6 65 18.2 92 92 S 5 7 29.97 1015 10 16.09344 0 0
1:55 am 01:55 Clear 68 19.9 65 18.2 90 90 S 7 11 30 1016 10 16.09344 0 0
2:15 am 02:15 Clear 67 19.5 64 18 91 91 S 6 9 29.97 1015 10 16.09344 0 0
2:35 am 02:35 Clear 67 19.5 64 18 91 91 S 5 7 29.97 1015 10 16.09344 0 0
2:55 am 02:55 Clear 67 19.3 64 17.9 92 92 S 6 9 29.97 1015 10 16.09344 0 0
3:15 am 03:15 Clear 67 19.2 64 17.8 92 92 S 5 7 29.97 1015 10 16.09344 0 0
3:35 am 03:35 Clear 65 18.6 64 17.7 95 95 S 5 7 29.97 1015 10 16.09344 0 0
3:55 am 03:55 Clear 65 18.5 64 17.7 95 95 S 5 7 29.97 1015 10 16.09344 0 0
4:15 am 04:15 Clear 65 18.4 64 17.7 96 96 SSE 5 7 29.97 1015 10 16.09344 0 0
4:35 am 04:35 Clear 65 18.5 64 17.7 95 95 S 5 7 29.97 1015 10 16.09344 0 0
4:55 am 04:55 Clear 65 18.5 64 17.8 96 96 S 5 7 29.94 1014 10 16.09344 0 0
5:10 am 05:10 Clear 65 18.2 64 17.6 96 96 SSE 3 6 29.94 1014 10 16.09344 0 0
5:35 am 05:35 Clear 65 18.1 64 17.6 97 97 S 6 9 29.94 1014 10 16.09344 0 0
5:55 am 05:55 Clear 65 18.3 64 17.5 95 95 S 6 9 29.94 1014 10 16.09344 0 0
6:15 am 06:15 Clear 65 18.3 64 17.5 95 95 S 5 7 29.94 1014 10 16.09344 0 0
6:35 am 06:35 Sunny 65 18.2 64 17.5 96 96 S 5 7 29.94 1014 10 16.09344 0 0
6:55 am 06:55 Sunny 65 18.5 64 17.5 94 94 S 5 7 29.94 1014 10 16.09344 0 0
7:15 am 07:15 Sunny 66 19.1 64 17.8 92 92 S 7 11 29.94 1014 10 16.09344 0 0
7:35 am 07:35 Sunny 68 20 64 18 88 88 S 8 13 29.91 1013 10 16.09344 0 0
7:55 am 07:55 Sunny 69 20.5 65 18.1 86 86 S 7 11 29.91 1013 10 16.09344 0 0
8:15 am 08:15 Sunny 71 21.4 65 18.2 82 82 S 6 9 29.91 1013 10 16.09344 0 0
8:35 am 08:35 Sunny 72 22.3 65 18.3 78 78 S 9 15 29.91 1013 10 16.09344 0 0
8:55 am 08:55 Sunny 73 23 65 18.2 74 74 S 9 15 29.91 1013 10 16.09344 0 0
9:15 am 09:15 Sunny 75 23.7 65 18.4 72 72 S 9 15 29.88 1012 10 16.09344 0 0
9:35 am 09:35 Sunny 76 24.4 66 19 72 72 S 12 19 29.88 1012 10 16.09344 0 0
9:55 am 09:55 Sunny 78 25.7 65 18.6 65 65 S 12 19 29.88 1012 10 16.09344 0 0
10:15 am 10:15 Sunny 77 25.2 65 18.3 66 66 SSW 7 11 29.91 1013 10 16.09344 0 0
10:35 am 10:35 Sunny 79 26 65 18.6 64 64 SSW 10 17 29.88 1012 10 16.09344 0 0
10:55 am 10:55 Sunny 80 26.6 67 19.4 65 65 SSW 9 15 29.88 1012 10 16.09344 0 0
11:15 am 11:15 Sunny 81 27.1 66 19.1 62 62 S 14 22 29.85 1011 10 16.09344 0 0
11:35 am 11:35 Sunny 81 27.2 67 19.4 62 62 S 12 19 29.85 1011 10 16.09344 0 0
11:55 am 11:55 Sunny 82 28 68 20.1 62 62 S 10 17 29.85 1011 10 16.09344 0 0
12:15 pm 12:15 Sunny 82 27.9 68 20.2 63 63 S 12 19 29.85 1011 10 16.09344 0 0
12:35 pm 12:35 Sunny 84 28.8 69 20.5 61 61 S 14 22 29.85 1011 10 16.09344 0 0
12:55 pm 12:55 Sunny 85 29.3 69 20.8 60 60 S 12 19 29.85 1011 10 16.09344 0 0
1:15 pm 13:15 Sunny 85 29.6 69 20.8 59 59 S 12 19 29.85 1011 10 16.09344 0 0
1:35 pm 13:35 Sunny 86 30.2 70 21 58 58 S 15 24 29.83 1010 10 16.09344 0 0
1:55 pm 13:55 Sunny 87 30.5 70 21.3 58 58 S 15 24 29.8 1009 10 16.09344 0 0
2:15 pm 14:15 Sunny 87 30.6 71 21.5 58 58 S 14 22 29.8 1009 10 16.09344 0 0
2:35 pm 14:35 Sunny 87 30.6 71 21.6 59 59 S 12 19 29.8 1009 10 16.09344 0 0
2:55 pm 14:55 Sunny 88 31.1 71 21.6 57 57 S 14 22 29.8 1009 10 16.09344 0 0
3:15 pm 15:15 Sunny 89 31.5 71 21.8 56 56 S 13 20 29.8 1009 10 16.09344 0 0
3:35 pm 15:35 Sunny 89 31.6 72 22.2 57 57 S 14 22 29.8 1009 10 16.09344 0 0
3:55 pm 15:55 Sunny 89 31.5 72 22.4 58 58 S 15 24 29.8 1009 10 16.09344 0 0
4:15 pm 16:15 Sunny 89 31.6 72 22.2 57 57 S 13 20 29.77 1008 10 16.09344 0 0
4:35 pm 16:35 Sunny 90 32 72 22.3 56 56 S 17 28 29.77 1008 10 16.09344 0 0
4:55 pm 16:55 Sunny 89 31.7 72 22.3 57 57 S 15 24 29.77 1008 10 16.09344 0 0
5:15 pm 17:15 Sunny 89 31.7 72 22 56 56 S 15 24 29.77 1008 10 16.09344 0 0
5:35 pm 17:35 Sunny 89 31.7 72 22.1 57 57 S 12 19 29.77 1008 10 16.09344 0 0
5:55 pm 17:55 Sunny 87 30.6 71 21.7 59 59 S 9 15 29.77 1008 10 16.09344 0 0
6:15 pm 18:15 Sunny 89 31.4 72 22.2 58 58 S 10 17 29.77 1008 10 16.09344 0 0
6:35 pm 18:35 Sunny 88 31.2 72 22 58 58 SSE 10 17 29.77 1008 10 16.09344 0 0
6:55 pm 18:55 Sunny 88 31 72 22.2 59 59 SSE 9 15 29.77 1008 10 16.09344 0 0
7:15 pm 19:15 Sunny 87 30.5 73 22.6 63 63 SSE 6 9 29.77 1008 10 16.09344 0 0
7:35 pm 19:35 Sunny 86 29.9 73 22.9 66 66 SE 7 11 29.83 1010 10 16.09344 0 0
7:55 pm 19:55 Sunny 85 29.2 73 22.6 68 68 SE 6 9 29.83 1010 10 16.09344 0 0
8:15 pm 20:15 Sunny 83 28.5 73 22.6 70 70 SE 6 9 29.83 1010 10 16.09344 0 0
8:35 pm 20:35 Sunny 81 27.2 73 22.6 76 76 SE 8 13 29.83 1010 10 16.09344 0 0
8:55 pm 20:55 Sunny 79 26.1 73 22.5 81 81 SE 8 13 29.85 1011 10 16.09344 0 0
9:15 pm 21:15 Clear 78 25.3 72 22.1 83 83 SE 8 13 29.85 1011 10 16.09344 0 0
9:35 pm 21:35 Clear 77 24.9 71 21.5 81 81 SE 8 13 29.85 1011 10 16.09344 0 0
9:55 pm 21:55 Clear 76 24.5 70 21 81 81 SE 8 13 29.85 1011 10 16.09344 0 0
10:15 pm 22:15 Clear 76 24.5 70 21 81 81 SE 10 17 29.85 1011 10 16.09344 0 0
10:35 pm 22:35 Clear 76 24.5 69 20.7 79 79 SSE 10 17 29.85 1011 10 16.09344 0 0
10:55 pm 22:55 Clear 75 24.1 69 20.4 80 80 SSE 12 19 29.85 1011 10 16.09344 0 0
11:15 pm 23:15 Clear 75 23.8 68 20.1 80 80 SSE 9 15 29.85 1011 10 16.09344 0 0
11:35 pm 23:35 Clear 75 23.7 68 20 80 80 SSE 7 11 29.88 1012 10 16.09344 0 0
11:55 pm 23:55 Clear 74 23.6 67 19.6 78 78 SSE 10 17 29.88 1012 10 16.09344 0 0

Powered by AerisWeather